Погода в Унеюве

Польша     51°58′15″N   18°47′22″E
темп.,
°C
ветер,
м/с
пор.,
м/с
влажн.,
%
обл.,
%
осадки,
мм/ч
давл.,
гПа
погр.,
м
25 февраля, чт
чт2501:00+8зюз348123 0.0 103133
04:00+7юз34840 0.0 103034
07:00+6юз34830 0.0 103033
10:00+11ююз35640 0.0 1028177
13:00+15ююз46560 0.0 1027310
16:00+14ююз37620 0.0 1026196
19:00+11юз48770 0.0 1026141
22:00+9зюз410830 0.0 1026178
26 февраля, пт
пт2601:00+8з48890 0.0 1026154
04:00+6з36940 0.0 102696
07:00+6з369632 0.0 1026103
10:00+6зсз269692 0.8 1026203
13:00+7з598696 1.4 1025425
16:00+8зсз51069100 0.0 1025864
19:00+6зсз51376100 0.0 1026566
22:00+4зсз5118684 0.0 1026332
27 февраля, сб
сб2701:00+3зсз6138846 0.0 1027463
04:00+4зсз7148674 0.0 1027699
07:00+4зсз7128886 0.0 1028622
10:00+5сз7107988 0.0 1029842
13:00+6сз797292 0.0 1030970
16:00+7сз586395 0.0 10301167
19:00+3сз4107767 0.0 1031242
22:00+1ссз37860 0.0 1033172
28 февраля, вс
вс2801:000сз37910 0.0 1034151
04:000сз35880 0.0 1034124
07:000зсз238516 0.0 103483
10:00+3зсз346766 0.0 1034326
13:00+6зсз345883 0.0 1034671
16:00+5зсз3568100 0.0 1033194
19:00+2сз238683 0.0 103529
22:00+1ссз239235 0.0 103522
1 марта, пн
пн101:00+1сз239519 0.0 103632
04:00+1сз23950 0.0 103537
07:00+1сз22950 0.0 103623
10:00+4сз22770 0.0 1036344
13:00+7сз22660 0.0 1036476
16:00+7зсз12680 0.0 1035136
19:00+4з12800 0.0 103622
22:00+3юз12836 0.0 103622